Weather History for Bangor, ME

Change the Weather History Date:

Sunday, February 24, 2013

  Actual Average Record
Temperature  
Mean Temperature 28 °F 23 °F  
Max Temperature 30 °F 34 °F 53 °F (1930)
Min Temperature 25 °F 13 °F -26 °F (1929)
Degree Days  
Heating Degree Days 37 42  
Month to date heating degree days 1026 1075  
Since 1 July heating degree days 5242 5482  
Cooling Degree Days 0 0  
Month to date cooling degree days 0 0  
Year to date cooling degree days 0 0  
Moisture  
Dew Point 26 °F    
Average Humidity 84    
Maximum Humidity 92    
Minimum Humidity 75    
Precipitation  
Precipitation 0.07 in 0.09 in 0.85 in (1979)
Month to date precipitation 1.94 2.13  
Year to date precipitation 2.81 5.02  
Snow  
Snow 2.50 in 0.50 in 10.00 in (1962)
Month to date snowfall 32.8 12.8  
Since 1 July snowfall 58.4 48.8  
Snow Depth 6.00 in    
Sea Level Pressure  
Sea Level Pressure 29.89 in    
Wind  
Wind Speed 7 mph (NE)    
Max Wind Speed 16 mph    
Max Gust Speed 21 mph    
Visibility 4 miles    
Events Snow    
T = Trace of Precipitation, MM = Missing Value Source: NWS Daily Summary

Daily Weather History Graph

Daily Weather History Graph

Search for Another Location

Airport:

Trip Planner

Search our weather history database for the weather conditions in past years. The results will help you decide how hot, cold, wet, or windy it might be!

Date:

Astronomy

Feb. 24, 2013 Rise Set
Actual Time 6:21 AM EST 5:16 PM EST
Civil Twilight 5:51 AM EST 5:46 PM EST
Nautical Twilight 5:17 AM EST 6:19 PM EST
Astronomical Twilight 4:43 AM EST 6:53 PM EST
Moon 4:23 PM EST (2/24) 5:17 AM EST (2/24)
Length of Visible Light 11h 54m
Length of Day
10h 55m
Waxing Gibbous, 99% of the Moon is Illuminated
Feb 24
Waxing Gibbous
Feb 25
Full
Mar 4
Last Quarter
Mar 11
New
Mar 19
First Quarter

Hourly Weather History & Observations

Time (EST) Temp. Windchill Dew Point Humidity Pressure Visibility Wind Dir Wind Speed Gust Speed Precip Events Conditions
12:01 AM 28.4 °F - 26.6 °F 93% 30.08 in 1.8 mi Calm Calm - 0.01 in Snow Light Snow
12:40 AM 28.4 °F 21.2 °F 26.6 °F 93% 30.06 in 2.5 mi East 6.9 mph - 0.02 in Snow Light Snow
12:48 AM 28.4 °F 22.2 °F 26.6 °F 93% 30.05 in 3.0 mi East 5.8 mph - 0.02 in Snow Light Snow
12:53 AM 28.0 °F 21.7 °F 26.1 °F 92% 30.06 in 2.0 mi East 5.8 mph - 0.02 in Snow Light Snow
1:20 AM 26.6 °F 17.5 °F 26.6 °F 100% 30.04 in 4.0 mi East 9.2 mph - 0.00 in Snow Light Snow
1:53 AM 27.0 °F 21.6 °F 25.0 °F 92% 30.05 in 4.0 mi ESE 4.6 mph - 0.00 in   Overcast
2:53 AM 27.0 °F 21.6 °F 25.0 °F 92% 30.02 in 9.0 mi ENE 4.6 mph - 0.00 in Snow Light Snow
3:53 AM 27.0 °F 21.6 °F 25.0 °F 92% 30.00 in 8.0 mi ESE 4.6 mph - 0.00 in Snow Light Snow
4:53 AM 27.0 °F 19.5 °F 25.0 °F 92% 29.98 in 10.0 mi East 6.9 mph - 0.00 in Snow Light Snow
5:53 AM 27.0 °F 20.5 °F 25.0 °F 92% 29.96 in 9.0 mi NE 5.8 mph - 0.00 in Snow Light Snow
6:44 AM 26.6 °F 21.2 °F 24.8 °F 93% 29.95 in 10.0 mi NNE 4.6 mph - 0.00 in   Overcast
6:53 AM 26.6 °F 18.2 °F 24.8 °F 93% 29.95 in 10.0 mi NNE 8.1 mph - N/A Snow Light Snow
7:53 AM 28.0 °F 20.8 °F 24.1 °F 85% 29.95 in 9.0 mi NE 6.9 mph - 0.00 in Snow Light Snow
8:53 AM 28.0 °F 20.8 °F 25.0 °F 88% 29.94 in 9.0 mi NE 6.9 mph - 0.00 in Snow Light Snow
9:53 AM 28.9 °F 21.9 °F 25.0 °F 85% 29.92 in 2.5 mi NE 6.9 mph - 0.00 in Snow Light Snow
10:53 AM 30.0 °F 22.4 °F 25.0 °F 82% 29.90 in 3.0 mi NE 8.1 mph - 0.00 in Snow Light Snow
11:03 AM 30.2 °F 22.6 °F 24.8 °F 80% 29.89 in 1.8 mi NE 8.1 mph - 0.00 in Snow Light Snow
11:13 AM 30.2 °F 20.8 °F 24.8 °F 80% 29.88 in 1.5 mi NE 11.5 mph - 0.00 in Snow Light Snow
11:22 AM 28.4 °F 19.7 °F 24.8 °F 86% 29.88 in 1.2 mi ENE 9.2 mph - 0.00 in Snow Light Snow
11:33 AM 28.4 °F 19.1 °F 26.6 °F 93% 29.88 in 0.8 mi NNE 10.4 mph - 0.00 in Snow Light Snow
11:53 AM 28.9 °F 21.1 °F 26.1 °F 89% 29.88 in 0.5 mi NE 8.1 mph - 0.00 in Snow Snow
12:25 PM 28.4 °F 19.7 °F 26.6 °F 93% 29.86 in 0.5 mi NNE 9.2 mph - 0.01 in Snow Snow
12:53 PM 28.9 °F 21.1 °F 27.0 °F 92% 29.86 in 0.8 mi NNE 8.1 mph - 0.02 in Snow Light Snow
1:13 PM 28.4 °F 19.7 °F 26.6 °F 93% 29.84 in 0.8 mi NNE 9.2 mph - 0.00 in Snow Light Snow
1:21 PM 28.4 °F 19.7 °F 26.6 °F 93% 29.84 in 0.8 mi NNE 9.2 mph - 0.00 in Snow Light Snow
1:26 PM 28.4 °F 19.1 °F 26.6 °F 93% 29.83 in 1.0 mi NNE 10.4 mph - 0.00 in Snow Light Snow
1:29 PM 28.4 °F 18.5 °F 26.6 °F 93% 29.83 in 0.8 mi NNE 11.5 mph - 0.00 in Snow Light Snow
1:42 PM 28.4 °F 18.5 °F 26.6 °F 93% 29.83 in 0.8 mi NE 11.5 mph - 0.01 in Snow Light Snow
1:53 PM 28.9 °F 19.8 °F 27.0 °F 92% 29.83 in 0.5 mi NNE 10.4 mph - 0.01 in Snow Snow
2:24 PM 28.4 °F 20.4 °F 26.6 °F 93% 29.82 in 0.8 mi NE 8.1 mph 20.7 mph 0.00 in Snow Light Snow
2:43 PM 28.4 °F 19.7 °F 26.6 °F 93% 29.82 in 1.2 mi NE 9.2 mph - 0.01 in Snow Light Snow
2:53 PM 28.9 °F 20.4 °F 27.0 °F 92% 29.83 in 0.8 mi NNE 9.2 mph - 0.01 in Snow Light Snow
3:02 PM 28.4 °F 18.5 °F 26.6 °F 93% 29.82 in 0.5 mi NNE 11.5 mph - 0.00 in Snow Snow
3:17 PM 28.4 °F 18.0 °F 26.6 °F 93% 29.82 in 1.0 mi NE 12.7 mph - 0.00 in Snow Light Snow
3:53 PM 28.9 °F 21.1 °F 26.1 °F 89% 29.83 in 1.0 mi NE 8.1 mph - 0.01 in Snow Light Snow
4:02 PM 28.4 °F 21.2 °F 26.6 °F 93% 29.81 in 0.8 mi NNE 6.9 mph - 0.00 in Snow Light Snow
4:15 PM 28.4 °F 18.0 °F 26.6 °F 93% 29.81 in 1.2 mi NE 12.7 mph - 0.00 in Snow Light Snow
4:53 PM 28.0 °F 20.8 °F 27.0 °F 96% 29.82 in 1.2 mi NNE 6.9 mph - 0.00 in Snow Light Snow
5:08 PM 28.4 °F 21.2 °F 26.6 °F 93% 29.81 in 1.5 mi North 6.9 mph - 0.00 in Snow Light Snow
5:53 PM 28.0 °F 20.8 °F 27.0 °F 96% 29.82 in 1.8 mi North 6.9 mph - 0.01 in Snow Light Snow
6:04 PM 28.4 °F 20.4 °F 26.6 °F 93% 29.81 in 2.0 mi North 8.1 mph - 0.00 in Snow Light Snow
6:15 PM 28.4 °F 21.2 °F 26.6 °F 93% 29.81 in 3.0 mi North 6.9 mph - 0.00 in Snow Light Snow
6:53 PM 28.0 °F 18.6 °F 25.0 °F 88% 29.83 in 10.0 mi North 10.4 mph - 0.00 in   Overcast
7:53 PM 28.0 °F 18.6 °F 24.1 °F 85% 29.85 in 10.0 mi North 10.4 mph - N/A   Overcast
8:53 PM 27.0 °F 17.3 °F 23.0 °F 85% 29.86 in 10.0 mi North 10.4 mph - N/A   Overcast
9:53 PM 26.1 °F 14.0 °F 19.9 °F 78% 29.87 in 10.0 mi North 15.0 mph - N/A   Overcast
10:53 PM 26.1 °F 16.2 °F 19.9 °F 78% 29.88 in 10.0 mi North 10.4 mph - N/A   Overcast
11:53 PM 25.0 °F 14.8 °F 19.9 °F 81% 29.90 in 10.0 mi North 10.4 mph - N/A   Overcast